www.pogodaiklimat.ru

Погода и климат >> Архив погоды >> Канада >> Resolute Airport


ПОГОДА в Resolute Airport

  • Прогноз погоды в Resolute Airport
  • Монитор погоды в Resolute Airport
  • Климат города

АРХИВ ПОГОДЫ в Resolute Airport

Время (UTC), дата Ветер
(напр.,м/с)
 
Видим.   Явления Облачность Т
(С)
Тd
(С)
f
(%)
Тe
(С)
Тes
(С)
Комфортность P
(гПа)
Po
(гПа)
Тmin
(С)
Tmax
(С)
R
(мм)
R24
(мм)
S
(см)
00 14.09 СВ 10 24 км {снег} 9/9 1000 м
[Sc As op]
-1.1 -3.0 87 -10 -10 1013.9 1005.1 -1.1 +1.1 0.0 3
03 14.09 СВ 11 24 км 10/10 1000 м
[]
-1.0 -3.4 84 -10 -10 1014.2 1005.4
06 14.09 СВ 8 24 км слабый снег 10/10 300 м
[Sc]
-2.7 -4.3 89 -11 -11 1014.8 1006.0 -3.0 +1.1 0.0 111
09 14.09 СВ 7 14 км 10/10 300 м
[]
-2.4 -4.2 87 -10 -10 1015.6 1006.7
12 14.09 В 3 24 км в посл. час снег 8/8 600 м
[Sc]
-1.8 -3.7 87 -6 -6 1015.8 1006.9 -3.0 +1.1 0.2
15 14.09 ЮВ 1 24 км 10/10 300 м
[]
-1.5 -3.4 87 -4 -4 1015.9 1007.0
18 14.09 1600 м слабый снег н/о -2.0 -2.4 97 -5 -5 1016.2 1007.3 -3.0 -1.5 0.0 3
21 14.09 ЮВ 2 2000 м 6/6 50 м
[]
-2.0 -2.3 98 -5 -5 1016.8 1007.9
00 15.09 ЮВ 3 6000 м дымка {снег} 10/10 100 м
[St]
-2.2 -3.0 94 -7 -7 1017.2 1008.3 -2.9 -1.5 0.2 3
03 15.09 Ю 2 24 км 10/10 50 м
[]
-2.4 -3.0 96 -6 -6 1017.3 1008.4
06 15.09 СВ 5 4000 м слабый снег {туман} 10/10 100 м
[St]
-4.8 -5.3 96 -12 -12 1017.4 1008.5 -4.8 -1.5 0.0 71
09 15.09 С 3 800 м н/о -5.7 -6.3 96 -12 -12 1017.4 1008.5
12 15.09 СЗ 5 800 м туман {снег} н/о -7.1 -7.9 94 -15 -15 1016.8 1007.9 -8.3 -1.5 0.0
15 15.09 СЗ 2 400 м н/о -5.9 -6.7 94 -10 -10 1015.5 1006.6
18 15.09 1200 м слабый снег {туман} н/о -4.5 -5.3 94 -13 -13 1014.1 1005.2 -8.3 -4.4 0.2 4
21 15.09 З 7 1000 м 3/3 200 м
[]
-4.3 -5.0 95 -13 -13 1012.8 1003.9
00 16.09 24 км слабый снег н/о -3.8 -4.5 95 -9 -9 1011.2 1002.3 -8.3 -3.3 0.4 5
03 16.09 СЗ 2 12 км 10/10 200 м
[]
-4.1 -4.7 96 -8 -8 1009.9 1001.0
06 16.09 С 2 16 км слабый снег 10/9 300 м
[Sc Ac trans]
-5.3 -6.1 94 -10 -10 1008.9 1000.0 -8.3 -3.3 1 21
09 16.09 СЗ 2 16 км 10/10 600 м
[]
-4.9 -5.8 93 -9 -9 1008.1 999.2
12 16.09 СЗ 3 16 км слабый снег 10/10 100 м
[St]
-4.8 -5.5 95 -11 -11 1006.8 998.0 -5.3 -3.3 0.4
15 16.09 СЗ 2 16 км 10/10 300 м
[]
-4.7 -5.6 93 -8 -8 1005.7 996.9
18 16.09 6000 м слабый снег н/о -4.7 -5.8 92 -8 -8 1004.3 995.5 -5.3 -4.3 0.4 6
21 16.09 ЮВ 3 3200 м н/о -4.6 -5.6 93 -10 -10 1003.3 994.5
00 17.09 В 4 3200 м слабый снег н/о -4.9 -6.2 91 -11 -11 1002.1 993.3 -5.3 -4.5 0.6 7
03 17.09 ЮВ 3 4800 м 3/3 200 м
[]
-4.8 -5.4 96 -11 -11 1001.0 992.2
06 17.09 ЮВ 6 9000 м слабый снег 4/4 300 м
[Sc]
-4.4 -5.4 93 -12 -12 1000.7 991.9 -5.3 -4.3 1
09 17.09 В 6 14 км 10/10 200 м
[]
-4.2 -5.5 91 -12 -12 1000.7 991.9
12 17.09 В 7 14 км слабый снег 10/10 300 м
[Sc]
-3.8 -5.0 91 -12 -12 1000.7 991.9 -5.0 -4.3 0.0
15 17.09 Ю 6 2000 м н/о -4.9 -6.5 89 -13 -13 1001.7 992.9
18 17.09 ЮВ 7 24 км слабый снег 9/9 300 м
[St]
-5.6 -7.8 84 -14 -14 1004.2 995.4 -5.8 -3.4 0.4 8
21 17.09 ЮВ 7 24 км 3/3 300 м
[]
-6.7 -9.2 82 -15 -15 1006.5 997.6
00 18.09 ЮВ 7 24 км {снег} 3/3 300 м
[Sc]
-8.0 -10.4 83 -17 -17 1008.2 999.3 -8.0 -3.4 0.0 8
03 18.09 СВ 6 24 км 3/3 1000 м
[]
-9.3 -10.4 92 -18 -18 1009.5 1000.6
06 18.09 СВ 8 24 км 5/3 600 м
[Sc Ac trans]
-9.0 -10.9 86 -19 -19 1009.0 1000.1 -10.8 -3.4 141
09 18.09 СВ 11 24 км 3/3 300 м
[]
-4.3 -5.8 89 -14 -14 1008.3 999.4
12 18.09 СВ 12 4800 м слабый снег 10/8 600 м
[Sc Ac trans]
-2.6 -3.9 91 -12 -12 1007.6 998.7 -10.8 -3.4 0.2
15 18.09 В 14 800 м 1/1 300 м
[]
-1.4 -2.3 94 -11 -11 1008.1 999.2
18 18.09 В 15 1000 м слабый снег {метель} 1/1 300 м
[]
-1.4 -2.2 94 -12 -12 1009.4 1000.5 -10.8 -1.1 0.4 10
21 18.09 В 13 2800 м 5/5 1000 м
[]
-1.0 -2.2 92 -11 -11 1010.6 1001.8
00 19.09 В 17 1200 м метель {снег} 8/8 1500 м
[Sc As trans]
-1.5 -2.6 92 -12 -12 1011.0 1002.2 -9.1 -0.9 0.4 11
03 19.09 В 15 9000 м 10/10 600 м
[]
-1.7 -2.9 91 -12 -12 1012.8 1004.0
06 19.09 В 12 14 км 5/1 200 м
[St Ac As]
-1.4 -3.0 89 -11 -11 1014.7 1005.8 -9.1 -0.9 13
09 19.09 В 14 16 км 6/6 600 м
[]
-1.8 -3.8 86 -12 -12 1015.3 1006.4
12 19.09 СВ 12 24 км 5/4 1000 м
[Sc Ac trans Cs]
-3.4 -5.7 84 -13 -13 1016.0 1007.1 -4.1 -0.9
15 19.09 СВ 12 24 км 9/0
[]
-3.7 -6.5 81 -14 -14 1016.3 1007.4
18 19.09 СВ 12 24 км 6/0 2000 м
[Ac trans Ci fib]
-3.3 -6.1 81 -13 -13 1016.2 1007.3 -5.0 -1.4 0.0 11
21 19.09 В 10 24 км 5/0
[]
-2.8 -5.8 80 -12 -12 1016.5 1007.6
00 20.09 СВ 8 24 км 6/0 2000 м
[Ac As]
-4.6 -6.6 86 -13 -13 1017.2 1008.3 -5.2 -1.9 8
03 20.09 СВ 10 24 км 8/0 2000 м
[]
-5.5 -7.0 89 -15 -15 1017.4 1008.5
06 20.09 СВ 10 24 км 3/0 2000 м
[Ac As]
-7.3 -8.9 88 -18 -18 1017.1 1008.2 -7.4 -1.4 92
09 20.09 СВ 9 24 км ясно -5.7 -8.6 80 -15 -15 1017.2 1008.3
12 20.09 СВ 7 24 км 6/6 600 м
[Sc Ac trans]
-4.7 -7.8 79 -13 -13 1017.8 1008.9 -7.4 -1.4
15 20.09 ЮЗ 1 24 км 6/6 600 м
[]
-5.5 -7.4 86 -8 -8 1018.6 1009.6
18 20.09 С 1 24 км 9/9 300 м
[Sc]
-3.6 -5.3 88 -4 -4 1018.7 1009.7 -7.4 -2.6 10
21 20.09 З 2 24 км 10/10 300 м
[]
-3.4 -5.3 87 -7 -7 1019.0 1010.1

 

Местоположение метеостанции Resolute Airport (Канада): широта 74.72 долгота -94.98 высота над уровнем моря 67 м.

В архиве по умолчанию представлена погода в Resolute Airport за последнюю неделю. Архивные данные за месяц целиком и за предыдущие месяцы, начиная с января 2011 года, Вы можете получить, выбрав интересующий диапазон дат из раскрывающегося списка и нажав кнопку "Ввод!".


*Определитесь, кто Вы:
робот инопланетянин человек

Внимание! Время в таблицах - всемирное. Для получения местного времени необходимо прибавить поправку, которая в Resolute Airport равна -6 ч.

Смотрите также архив погоды в соседних городах и на ближайших метеорологических станциях:

Погода в Resolute Cs (Канада) (1 км)
Погода в Stefansson Island (Канада) (326 км)
Погода в Arctic Bay (Канада) (362 км)
Погода в Isachsen (aut) (Канада) (500 км)
Погода в Pond Inlet Airport (Канада) (574 км)
Погода в Pond Inlet Climate (Канада) (575 км)
Погода в Spence bay (Канада) (577 км)
Погода в Chris Hadfield (Канада) (599 км)
Погода в Eureka (Канада) (623 км)
Погода в Eureka Climate (Канада) (624 км)

Пояснения к столбцам:

Ветер - указаны скорость ветра в м/с - средняя за 10 мин, порывы в срок и между сроками (в фигурных скобках) и направление, откуда дует ветер: С - северный, СВ - северо-восточный, В - восточный, ЮВ - юго-восточный, Ю - южный, ЮЗ - юго-западный, З - западный, СЗ - северо-западный.
Видимость - горизонтальная дальность видимости в метрах или километрах. При видимости от 1 до 10 км при отсутствии осадков обычно наблюдается дымка, при ухудшении видимости до 1 км и менее - туман. В сухую погоду видимость может ухудшаться дымом, пылью или мглою.
Явления - указаны атмосферные явления, наблюдавшиеся в срок или в последний час перед сроком; фигурными скобками обозначены явления, наблюдавшиеся между сроками (за 1-3 часа до срока); квадратными скобками обозначены град или гололедные отложения с указанием их диаметра в мм.
Облачность - указаны через наклонную черту общая и нижняя облачность в баллах и высота нижней границы облаков в метрах; квадратными скобками обозначены формы облаков: Ci - перистые, Cs - перисто-слоистые, Cc - перисто-кучевые, Ac - высококучевые, As - высокослоистые, Sc - слоисто-кучевые, Ns - слоисто-дождевые, Cu - кучевые, Cb - кучево-дождевые. Подробнее классификацию облаков см. в Атласе облаков (PDF).
T - Температура воздуха - температура, измеренная на высоте 2 м над землей.
Td - Температура точки росы - температура, при понижении до которой содержащийся в воздухе водяной пар достигнет насыщения.
f - Относительная влажность воздуха - влажноcть воздуха, измеренная на высоте 2 м над землей.
Te - Эффективная температура - температура, которую ощущает одетый по сезону человек в тени. Характеристика душности погоды. При расчете учитывается влияние влажности воздуха и скорости ветра на теплоощущения человека.
Tes - Эффективная температура на солнце - температура, которую ощущает человек, с поправкой на солнечный нагрев. Характеристика знойности погоды. Зависит от высоты солнца над горизонтом, облачности и скорости ветра. Ночью, в пасмурную погоду, а также при ветре 12 м/с и более поправка равна нулю.
P - Атмосферное давление - приведенное к уровню моря атмосферное давление.
Po - Атмосферное давление - измеренное на уровне метеостанции атмосферное давление.
Tmin - Минимальная температура - минимум температуры воздуха на высоте 2 м над землей.
Tmax - Максимальная температура - максимум температуры воздуха на высоте 2 м над землей.
R - Количество осадков - Количество выпавших осадков за период времени, мм. При наведении курсора мыши на число - период времени, за который выпало указанное количество осадков.
R24 - Количество осадков - Количество выпавших осадков за 24 часа, мм.
S - Снежный покров - Высота снежного покрова, см. При наведении курсора мыши на число - состояние снежного покрова и степень покрытия местности в баллах.